Date,TemperatureHighF,TemperatureAvgF,TemperatureLowF,DewpointHighF,DewpointAvgF,DewpointLowF,HumidityHigh,HumidityAvg,HumidityLow,PressureMaxIn,PressureMinIn,WindSpeedMaxMPH,WindSpeedAvgMPH,GustSpeedMaxMPH,PrecipitationSumIn
2013-12-1,52,50,48,51,49,47,98,96,93,30.32,30.03,9,3,0,0.18
2013-12-2,56,52,49,53,50,48,98,93,82,30.03,29.77,11,4,0,0.01
2013-12-3,60,50,46,48,45,36,98,83,41,30.06,29.83,7,2,0,0.01
2013-12-4,64,59,50,62,57,48,97,95,90,30.12,30.04,13,2,0,0.12
2013-12-5,72,64,54,68,62,53,99,93,84,30.20,30.12,8,3,0,0.02
2013-12-6,74,70,67,69,67,66,95,91,83,30.16,30.08,19,8,0,0.00
2013-12-7,71,57,48,69,55,46,96,93,89,30.40,30.07,19,10,0,0.13
2013-12-8,54,52,48,54,51,46,99,97,89,30.39,30.23,21,7,0,0.25
2013-12-9,70,58,48,66,57,48,99,95,83,30.23,30.08,10,3,0,0.00
2013-12-10,69,54,42,67,52,38,100,94,84,30.30,29.82,19,6,0,0.13
2013-12-11,46,42,36,38,33,27,91,71,49,30.47,30.29,13,4,0,0.00
2013-12-12,47,42,32,39,33,27,83,71,63,30.40,30.24,19,7,0,0.00
2013-12-13,49,40,29,38,29,22,92,65,40,30.43,30.32,12,3,0,0.00
2013-12-14,68,55,37,66,50,34,97,82,65,30.36,29.76,28,6,0,0.97
2013-12-15,65,55,48,64,52,39,98,92,73,30.03,29.69,15,5,0,0.29
2013-12-16,50,44,38,41,37,33,94,76,62,30.20,30.03,12,4,0,0.00
2013-12-17,64,56,38,52,46,36,93,72,51,30.20,29.93,22,6,0,0.00
2013-12-18,59,46,38,45,35,28,84,67,54,30.33,29.95,19,6,0,0.00
2013-12-19,59,49,33,53,41,29,91,74,49,30.37,30.28,10,3,0,0.00
2013-12-20,70,61,51,63,57,50,96,86,68,30.31,30.19,10,2,0,0.00
2013-12-21,74,68,64,68,65,61,96,88,76,30.23,30.15,13,4,0,0.00
2013-12-22,75,71,68,70,68,66,97,91,84,30.19,30.13,16,6,0,0.00
2013-12-23,76,71,56,70,68,55,96,91,83,30.16,30.02,17,8,0,0.10
2013-12-24,56,47,42,55,42,28,96,85,58,30.37,30.03,22,11,0,0.39
2013-12-25,49,42,38,45,36,28,92,78,60,30.49,30.35,18,8,0,0.00
2013-12-26,53,47,43,51,44,41,97,90,79,30.34,30.24,13,5,0,0.09
2013-12-27,52,48,44,43,39,35,86,70,58,30.42,30.31,13,6,0,0.01
2013-12-28,59,49,43,55,44,40,95,84,70,30.42,30.20,6,2,0,0.00
2013-12-29,70,64,54,67,60,52,97,88,78,30.20,29.73,22,9,0,0.66
2013-12-30,55,51,48,52,48,45,95,89,80,30.11,29.91,10,3,0,0.01
2013-12-31,51,48,44,48,42,34,94,80,60,30.37,30.08,17,4,0,0.00